Location: Cricklewood
(51.5500°N, 0.2167°W)
Time: 10:18:42
(UTC+00:00)

Ariane Rocket - Pass Details

Date: 06 September 2025
Orbit: 754 x 765 km, 98.5° (Epoch: 12 December)

Event Time Altitude Azimuth Distance (km) Brightness Sun altitude
Exits shadow 20:22:03 24° 97° (E) 1,557 4.1 -16.1°
Maximum altitude 20:23:55 30° 61° (ENE) 1,339 4.0 -16.4°
Drops below altitude 10° 20:28:17 10° 2° (N) 2,305 5.9 -17.0°
Sets 20:30:49 0° 352° (N) 3,238 6.9 -17.3°
